User: anonymous   Login
Location: Springfield
(37.2150°N, 93.2980°W)
Time: 08:45:19
(UTC-05:00)
Language:

Cosmos 2366 rocket - Orbit

View from above orbital plane
View from above orbital plane
View from above satellite
View from above satellite

Ground track
Ground track

The orbit data is extracted from the following two-line orbital elements,

1 25893U 99045B   18168.91349656 +.00000078 +00000-0 +63967-4 0  9991
2 25893 082.9267 112.2712 0029269 148.9922 269.3513 13.76521188944965
Epoch (UTC): 17 June 2018 21:55:26
Eccentricity: 0.0029269
inclination: 82.9267°
perigee height: 955 km
apogee height: 998 km
right ascension of ascending node: 112.2712°
argument of perigee: 148.9922°
revolutions per day: 13.76521188
mean anomaly at epoch: 269.3513°
orbit number at epoch: 94496

The dashed part of the orbit path shows where the satellite is in the earth's shadow,  

DLR